Osoyoos, British Columbia

3:56 PM PST on November 21, 2017 (GMT -0800)
Osoyoos

Weather History for CWYY - March, 2014

Change the Weather History Date:

Thursday, March 6, 2014

  Actual Average (KOMK) Record (KOMK)
Temperature  
Mean Temperature 44 °F 38 °F  
Max Temperature 54 °F 48 °F 61 °F (1953)
Min Temperature 35 °F 27 °F 2 °F (1956)
Degree Days  
Heating Degree Days 20 27  
Month to date heating degree days 170  
Since 1 July heating degree days 5031  
Cooling Degree Days 0 0  
Month to date cooling degree days 0  
Year to date cooling degree days 0  
Moisture  
Dew Point 39 °F    
Average Humidity 81    
Maximum Humidity 99    
Minimum Humidity 49    
Precipitation  
Precipitation 0.08 in 0.04 in 0.52 in (2016)
Month to date precipitation 0.26  
Year to date precipitation 3.56  
Sea Level Pressure  
Sea Level Pressure 29.65 in    
Wind  
Wind Speed 3 mph ()    
Max Wind Speed 8 mph    
Max Gust Speed -    
T = Trace of Precipitation, MM = Missing Value Source: Averaged Metar Reports

Daily Weather History Graph

Daily Weather History Graph

Search for Another Location

Airport or City:

Trip Planner

Search our weather history database for the weather conditions in past years. The results will help you decide how hot, cold, wet, or windy it might be!

Date:

Astronomy

Mar. 06, 2014 Rise Set
Actual Time 6:29 AM PST 5:49 PM PST
Civil Twilight 5:57 AM PST 6:20 PM PST
Nautical Twilight 5:21 AM PST 6:57 PM PST
Astronomical Twilight 4:44 AM PST 7:34 PM PST
Moon 9:11 AM PST (3/6) No Moon Set
Length of Visible Light 12h 22m
Length of Day
11h 19m
Waxing Crescent, 33% of the Moon is Illuminated
Mar 6
Waxing Crescent
Mar 8
First Quarter
Mar 16
Full
Mar 23
Last Quarter
Mar 30
New

Hourly Weather History & Observations

Time (PST) Temp. Windchill Dew Point Humidity Pressure Visibility Wind Dir Wind Speed Gust Speed Precip Events Conditions
12:00 AM 38.8 °F - 38.3 °F 98% 29.50 in - NNW 1.2 mph - N/A   Unknown
1:00 AM 38.1 °F - 37.8 °F 99% 29.49 in - NE 2.3 mph - 0.01 in   Unknown
2:00 AM 38.1 °F - 37.6 °F 98% 29.49 in - NE 2.3 mph - N/A   Unknown
3:00 AM 37.8 °F - 37.4 °F 99% 29.50 in - East 1.2 mph - 0.01 in   Unknown
4:00 AM 38 °F - 37 °F 97% 29.52 in - SW 5.8 mph - -  
4:00 AM 37.8 °F 33.3 °F 37.4 °F 99% 29.52 in - SW 5.8 mph - N/A   Unknown
5:00 AM 42.1 °F 39.2 °F 41.5 °F 98% 29.53 in - SE 4.6 mph - N/A   Unknown
6:00 AM 42.4 °F 38.8 °F 40.5 °F 93% 29.56 in - SSE 5.8 mph - N/A   Unknown
7:00 AM 41.7 °F 39.8 °F 39.6 °F 92% 29.58 in - South 3.5 mph - N/A   Unknown
8:00 AM 41.4 °F 39.4 °F 39.2 °F 92% 29.60 in - South 3.5 mph - N/A   Unknown
9:00 AM 45.1 °F 43.7 °F 42.3 °F 90% 29.62 in - SSE 3.5 mph - N/A   Unknown
10:00 AM 48 °F - 43 °F 76% 29.63 in - SSE 2.3 mph - -  
10:00 AM 47.7 °F - 42.8 °F 83% 29.63 in - SSE 2.3 mph - N/A   Unknown
11:00 AM 49.6 °F - 40.5 °F 71% 29.64 in - South 4.6 mph - N/A   Unknown
12:00 PM 49.1 °F - 40.5 °F 72% 29.64 in - SE 4.6 mph - N/A   Unknown
1:00 PM 52.0 °F - 38.3 °F 60% 29.65 in - SE 8.1 mph - N/A   Unknown
2:00 PM 52.3 °F - 38.3 °F 59% 29.65 in - SE 6.9 mph - N/A   Unknown
3:00 PM 53.4 °F - 40.5 °F 61% 29.65 in - SSE 8.1 mph - N/A   Unknown
4:00 PM 54 °F - 40 °F 49% 29.66 in - ESE 5.8 mph - -  
4:00 PM 54.3 °F - 40.3 °F 59% 29.66 in - ESE 5.8 mph - N/A   Unknown
5:00 PM 53.8 °F - 39.9 °F 59% 29.68 in - ESE 4.6 mph - N/A   Unknown
6:00 PM 52.0 °F - 39.2 °F 62% 29.71 in - East 3.5 mph - N/A   Unknown
7:00 PM 48.0 °F - 39.7 °F 73% 29.75 in - WSW 1.2 mph - N/A   Unknown
8:00 PM 47.8 °F - 39.2 °F 72% 29.78 in - ESE 1.2 mph - N/A   Unknown
9:00 PM 43.5 °F - 38.8 °F 84% 29.82 in - SW 1.2 mph - N/A   Unknown
10:00 PM 40 °F - 37 °F 87% 29.86 in - WSW 1.2 mph - -  
10:00 PM 40.5 °F - 37.4 °F 89% 29.86 in - WSW 1.2 mph - N/A   Unknown
11:00 PM 38.3 °F - 36.1 °F 92% 29.89 in - East 1.2 mph - N/A   Unknown